Tracking 17145 objects as of 24-May-2015
HD Live streaming from Space Station

COSMOS 2352

Track COSMOS 2352 now!
10-day predictions
COSMOS 2352 is classified as:


NORAD ID: 25363
Int'l Code: 1998-036A
Perigee: 1,317.4 km
Apogee: 1,881.2 km
Inclination: 82.6 °
Period: 118.0 minutes
Semi major axis: 7970 km
RCS: 1.1335 m2 (large)
Launch date: June 15, 1998
Source: Commonwealth of Independent States (former USSR) (CIS)

Satellites have a single simultaneous earth-space and space-earth channel.
Your satellite tracking list
Your tracking list is empty





NASA's NSSDC Master Catalog

Two Line Element Set (TLE):
1 25363U 98036A   15142.32664421  .00000022  00000-0  78509-4 0  9993
2 25363 082.5936 228.2421 0353679 110.7526 313.2567 12.20083796754157

Source of the keplerian elements: AFSPC

N2YO: 338